BURGAS current weather conditions

sailwx.info

Wind from 040 at 12 knots

Air temperature 3.0° C
Visibility: greater than 3.8 NM
Dewpoint 2.0° C
Present weather: Light rain.

Last reported at 2017-Jan-16 15:30 UTC.
Time now 2017-Jan-16 17:09 UTC

Location: N 42°34' E 027°31'.
View on Google Maps.

See reports from other nearby stations

  
Tides and Currents Weather Stations Pressure Air Temp Water Temp Dewpoint Dewpoint Depression Visibility Wind Speed Wind Dir Waves Ship Positions
date/time (UTC)wind fromknots sea level pressurealtimeterstation pressurevisibilityair tempwater tempwave heightnotes
2017-Jan-16 16:30 040 11 4.3 3.0 Light rain.
2017-Jan-16 16:00 040 11 4.3 3.0 Light rain.
2017-Jan-16 15:30 040 12 3.8 3.0 Light rain.
2017-Jan-16 15:00 040 14 2.1 3.0 Light rain. Mist.
2017-Jan-16 14:30 040 15 2.5 3.0 Light rain.
2017-Jan-16 14:00 040 15 4.3 3.0 Light rain.
2017-Jan-16 13:30 040 17 3.2 3.0 Light rain.
2017-Jan-16 13:00 040 18 3.8 3.0 Light rain.
2017-Jan-16 12:30 040 18 2.4 3.0 Light rain.
2017-Jan-16 12:00 030 15 5.4 3.0
2017-Jan-16 11:30 040 17 5.4 3.0
2017-Jan-16 11:00 040 18 4.3 3.0
2017-Jan-16 10:30 030 18 3.8 3.0 Light rain.
2017-Jan-16 10:00 040 18 3.8 3.0 Light rain.
2017-Jan-16 09:30 030 15 3.2 3.0 Light rain.
2017-Jan-16 09:00 030 15 4.9 3.0
2017-Jan-16 08:30 030 18 4.3 2.0
2017-Jan-16 08:00 030 15 4.3 2.0
2017-Jan-16 07:30 030 17 3.8 2.0
2017-Jan-16 07:00 040 17 3.8 2.0
2017-Jan-16 06:30 040 15 4.3 2.0
2017-Jan-16 06:00 020 6 4.9 2.0
2017-Jan-16 05:30 300 2 5.4-0.0
2017-Jan-16 05:00 040 5 5.4 1.0
2017-Jan-16 04:30 060 6 5.4 1.0
2017-Jan-16 04:00 050 4 5.4-0.0
2017-Jan-16 03:30 040 4 5.4-1.0
2017-Jan-16 03:00 040 6 5.4-1.0
2017-Jan-16 02:30 080 5 5.4-0.0
2017-Jan-16 02:00 040 4 5.4-2.0
2017-Jan-16 01:30 020 4 5.4-3.0
2017-Jan-16 01:00 070 4 5.4-2.0
2017-Jan-16 00:30 090 2 5.4-1.0
2017-Jan-16 00:00 5.4-1.0
2017-Jan-15 23:30 5.4-3.0
2017-Jan-15 23:00 5.4-1.0
2017-Jan-15 22:30 5.4-1.0
2017-Jan-15 22:00 260 2 5.4-0.0
2017-Jan-15 21:30 250 2 5.4-0.0
2017-Jan-15 21:00 260 2 5.4-0.0
2017-Jan-15 20:30 5.4-0.0
2017-Jan-15 20:00 260 5 5.4-0.0
2017-Jan-15 19:30 250 5 5.4-1.0
2017-Jan-15 19:00 260 2 5.4 1.0
2017-Jan-15 18:30 280 5 5.4-0.0
2017-Jan-15 18:00 290 5 5.4 1.0
2017-Jan-15 17:30 240 2 5.4 2.0
2017-Jan-15 17:00 120 4 5.4 2.0
2017-Jan-15 16:30 110 5 5.4 2.0
2017-Jan-15 16:00 110 5 5.4 3.0
2017-Jan-15 15:30 080 6 5.4 3.0
2017-Jan-15 15:00 100 6 5.4 4.0
2017-Jan-15 14:30 5.4 4.0
2017-Jan-15 14:00 5.4 5.0
2017-Jan-15 13:30 350 2 5.4 5.0
2017-Jan-15 13:00 5.4 4.0
2017-Jan-15 12:30 260 4 5.4 4.0
2017-Jan-15 12:00 240 6 5.4 3.0
2017-Jan-15 11:30 230 5 5.4 3.0
2017-Jan-15 11:00 220 5 5.4 4.0
2017-Jan-15 10:30 240 5 5.4 4.0
2017-Jan-15 10:00 230 6 gusting 17 5.4 3.0
2017-Jan-15 09:30 240 6 5.4 3.0
2017-Jan-15 09:00 260 5 5.4 2.0
2017-Jan-15 08:30 270 4 5.4 1.0
2017-Jan-15 08:00 300 4 5.4 1.0
2017-Jan-15 07:30 260 4 5.4 1.0
2017-Jan-15 07:00 130 2 5.4 1.0
2017-Jan-15 06:30 250 2 5.4 1.0
2017-Jan-15 06:00 4.3 1.0
2017-Jan-15 05:30 160 4 5.4 1.0
2017-Jan-15 05:00 190 5 5.4 1.0
2017-Jan-15 04:30 230 4 5.4 1.0
2017-Jan-15 04:00 200 2 5.4 1.0
2017-Jan-15 03:30 250 2 5.4 2.0
2017-Jan-15 03:00 260 4 5.4 1.0
2017-Jan-15 02:30 220 2 5.4 1.0
2017-Jan-15 02:00 280 5 5.4 1.0
2017-Jan-15 01:30 280 4 5.4 1.0
2017-Jan-15 01:00 4.3 1.0
2017-Jan-15 00:30 300 4 4.3 1.0
2017-Jan-15 00:00 200 5 4.3 2.0
2017-Jan-14 23:30 210 5 5.4 2.0
2017-Jan-14 23:00 210 5 5.4 2.0
2017-Jan-14 22:30 220 6 5.4 2.0 Light rain.
2017-Jan-14 22:00 250 4 4.9 2.0 Light rain.
2017-Jan-14 21:30 290 6 4.9 2.0 Light rain.
2017-Jan-14 21:00 270 5 4.3 2.0 Rain.
2017-Jan-14 20:30 260 6 3.8 2.0 Rain.
2017-Jan-14 20:00 3.8 4.0 Rain.
2017-Jan-14 19:30 3.8 3.0 Light rain.
2017-Jan-14 19:00 4.3 4.0 Rain.
2017-Jan-14 18:30 4.3 4.0 Rain.
2017-Jan-14 18:00 320 2 4.9 4.0 Rain.
2017-Jan-14 17:30 220 5 4.3 3.0 Rain.
2017-Jan-14 17:00 290 6 4.3 4.0 Rain.